Chehalis, WA

2:15 PM PDT on July 28, 2016 (GMT -0700)
Chehalis-Centralia

Weather History for KCLS - March, 2014

Change the Weather History Date:

Tuesday, March 25, 2014

  Actual Average (KOLM) Record (KOLM)
Temperature  
Mean Temperature 52 °F 46 °F  
Max Temperature 57 °F 55 °F 67 °F (1960)
Min Temperature 46 °F 36 °F 20 °F (1996)
Degree Days  
Heating Degree Days 14 19  
Month to date heating degree days 522  
Since 1 July heating degree days 4244  
Cooling Degree Days 0 0  
Month to date cooling degree days 0  
Year to date cooling degree days 0  
Growing Degree Days 2 (Base 50)    
Moisture  
Dew Point 44 °F    
Average Humidity 80    
Maximum Humidity 93    
Minimum Humidity 62    
Precipitation  
Precipitation 0.07 in 0.16 in 0.83 in (1978)
Month to date precipitation 4.36  
Year to date precipitation 17.47  
Sea Level Pressure  
Sea Level Pressure 29.69 in    
Wind  
Wind Speed 6 mph (South)    
Max Wind Speed 20 mph    
Max Gust Speed 31 mph    
Visibility 8 miles    
Events Rain    
T = Trace of Precipitation, MM = Missing Value Source: NWS Daily Summary

Daily Weather History Graph

Daily Weather History Graph

Search for Another Location

Airport or City:

Trip Planner

Search our weather history database for the weather conditions in past years. The results will help you decide how hot, cold, wet, or windy it might be!

Date:

Astronomy

Mar. 25, 2014 Rise Set
Actual Time 7:04 AM PDT 7:31 PM PDT
Civil Twilight 6:34 AM PDT 8:01 PM PDT
Nautical Twilight 5:58 AM PDT 8:37 PM PDT
Astronomical Twilight 5:21 AM PDT 9:15 PM PDT
Moon 3:49 AM PDT (3/25) 1:51 PM PDT (3/25)
Length of Visible Light 13h 27m
Length of Day
12h 26m
Waning Crescent, 31% of the Moon is Illuminated
Mar 25
Waning Crescent
Mar 30
New
Apr 7
First Quarter
Apr 15
Full
Apr 22
Last Quarter

Hourly Weather History & Observations

Time (PDT) Temp. Windchill Dew Point Humidity Pressure Visibility Wind Dir Wind Speed Gust Speed Precip Events Conditions
12:15 AM 51.8 °F - 41.0 °F 67% 29.88 in 10.0 mi Calm Calm - N/A   Overcast
12:35 AM 53.6 °F - 41.0 °F 62% 29.87 in 10.0 mi Calm Calm - N/A   Overcast
12:55 AM 51.8 °F - 41.0 °F 67% 29.85 in 10.0 mi SE 5.8 mph - N/A   Overcast
1:15 AM 51.8 °F - 42.8 °F 71% 29.85 in 10.0 mi SW 3.5 mph - N/A   Overcast
1:35 AM 50.0 °F - 44.6 °F 82% 29.85 in 9.0 mi Calm Calm - N/A   Overcast
1:55 AM 50.0 °F - 41.0 °F 71% 29.85 in 10.0 mi Calm Calm - N/A   Overcast
2:15 AM 50.0 °F - 39.2 °F 66% 29.83 in 10.0 mi North 4.6 mph - N/A   Overcast
2:35 AM 48.2 °F - 41.0 °F 76% 29.82 in 10.0 mi Calm Calm - N/A   Overcast
2:55 AM 50.0 °F - 41.0 °F 71% 29.82 in 10.0 mi SSW 3.5 mph - N/A   Overcast
3:15 AM 48.2 °F - 41.0 °F 76% 29.82 in 10.0 mi Calm Calm - N/A   Overcast
3:35 AM 48.2 °F - 42.8 °F 82% 29.79 in 10.0 mi North 3.5 mph - N/A   Overcast
3:55 AM 48.2 °F - 41.0 °F 76% 29.79 in 10.0 mi Calm Calm - N/A   Overcast
4:15 AM 48.2 °F - 41.0 °F 76% 29.78 in 10.0 mi Calm Calm - N/A   Overcast
4:35 AM 48.2 °F - 41.0 °F 76% 29.78 in 10.0 mi West 3.5 mph - N/A   Overcast
4:55 AM 48.2 °F - 42.8 °F 82% 29.78 in 10.0 mi Calm Calm - N/A   Overcast
5:15 AM 48.2 °F - 42.8 °F 82% 29.77 in 10.0 mi Calm Calm - N/A   Overcast
5:35 AM 48.2 °F - 42.8 °F 82% 29.78 in 10.0 mi Calm Calm - N/A   Overcast
5:55 AM 48.2 °F - 44.6 °F 87% 29.77 in 8.0 mi SE 3.5 mph - N/A Rain Light Rain
6:15 AM 46.4 °F 45.2 °F 44.6 °F 93% 29.77 in 10.0 mi West 3.5 mph - N/A Rain Light Rain
6:35 AM 48.2 °F - 44.6 °F 87% 29.77 in 8.0 mi South 8.1 mph - N/A   Overcast
6:55 AM 48.2 °F - 44.6 °F 87% 29.76 in 9.0 mi South 10.4 mph - N/A Rain Light Rain
7:15 AM 48.2 °F - 44.6 °F 87% 29.74 in 6.0 mi SSE 12.7 mph 20.7 mph 0.01 in Rain Light Rain
7:35 AM 48.2 °F - 44.6 °F 87% 29.73 in 9.0 mi SSE 8.1 mph 19.6 mph 0.01 in   Overcast
7:55 AM 48.2 °F - 44.6 °F 87% 29.73 in 8.0 mi South 12.7 mph 18.4 mph 0.01 in   Scattered Clouds
8:15 AM 48.2 °F - 44.6 °F 87% 29.72 in 8.0 mi South 10.4 mph 18.4 mph N/A   Clear
8:35 AM 48.2 °F - 44.6 °F 87% 29.71 in 5.0 mi South 9.2 mph 20.7 mph N/A   Haze
8:55 AM 50.0 °F - 44.6 °F 82% 29.70 in 7.0 mi South 10.4 mph 16.1 mph N/A Rain Light Rain
9:15 AM 48.2 °F - 44.6 °F 87% 29.69 in 8.0 mi South 9.2 mph - N/A Rain Light Rain
9:35 AM 48.2 °F - 44.6 °F 87% 29.68 in 6.0 mi South 10.4 mph - N/A   Scattered Clouds
9:55 AM 50.0 °F - 46.4 °F 87% 29.67 in 10.0 mi South 11.5 mph 18.4 mph N/A   Overcast
10:15 AM 50.0 °F - 44.6 °F 82% 29.66 in 10.0 mi SSW 11.5 mph 18.4 mph N/A   Overcast
10:35 AM 53.6 °F - 44.6 °F 72% 29.65 in 10.0 mi South 15.0 mph 19.6 mph N/A   Overcast
10:55 AM 53.6 °F - 44.6 °F 72% 29.65 in 6.0 mi South 16.1 mph 23.0 mph N/A   Haze
11:15 AM 53.6 °F - 44.6 °F 72% 29.65 in 5.0 mi SSW 16.1 mph 24.2 mph N/A   Haze
11:35 AM 53.6 °F - 44.6 °F 72% 29.65 in 5.0 mi South 13.8 mph 31.1 mph N/A   Haze
11:55 AM 53.6 °F - 44.6 °F 72% 29.65 in 7.0 mi SSW 19.6 mph 27.6 mph N/A   Overcast
12:15 PM 53.6 °F - 44.6 °F 72% 29.65 in 6.0 mi South 13.8 mph 25.3 mph N/A   Haze
12:35 PM 51.8 °F - 46.4 °F 82% 29.64 in 6.0 mi South 12.7 mph 23.0 mph N/A Rain Light Rain
12:55 PM 53.6 °F - 48.2 °F 82% 29.64 in 7.0 mi SSW 13.8 mph 23.0 mph N/A   Scattered Clouds
1:15 PM 55.4 °F - 46.4 °F 72% 29.62 in 10.0 mi SSE 11.5 mph 19.6 mph N/A   Mostly Cloudy
1:35 PM 57.2 °F - 46.4 °F 67% 29.61 in 6.0 mi South 15.0 mph 20.7 mph N/A   Haze
1:55 PM 57.2 °F - 44.6 °F 63% 29.60 in 10.0 mi South 18.4 mph 26.5 mph N/A   Mostly Cloudy
2:15 PM 55.4 °F - 46.4 °F 72% 29.60 in 10.0 mi South 9.2 mph 25.3 mph N/A   Mostly Cloudy
2:35 PM 55.4 °F - 48.2 °F 77% 29.59 in 5.0 mi South 13.8 mph 21.9 mph 0.01 in   Haze
2:55 PM 55.4 °F - 48.2 °F 77% 29.58 in 10.0 mi SSW 12.7 mph 18.4 mph 0.01 in   Mostly Cloudy
3:15 PM 53.6 °F - 46.4 °F 77% 29.59 in 6.0 mi SSW 18.4 mph 26.5 mph N/A Rain Light Rain
3:35 PM 53.6 °F - 44.6 °F 72% 29.58 in 7.0 mi SSW 16.1 mph 23.0 mph N/A Rain Light Rain
3:55 PM 53.6 °F - 46.4 °F 77% 29.58 in 7.0 mi SSW 16.1 mph 24.2 mph N/A   Scattered Clouds
4:15 PM 53.6 °F - 46.4 °F 77% 29.58 in 10.0 mi SSW 13.8 mph 23.0 mph 0.01 in Rain Light Rain
4:35 PM 51.8 °F - 46.4 °F 82% 29.58 in 3.0 mi SSW 11.5 mph 19.6 mph 0.01 in Rain Light Rain
4:55 PM 51.8 °F - 48.2 °F 88% 29.58 in 5.0 mi South 15.0 mph 25.3 mph 0.01 in   Mostly Cloudy
5:15 PM 51.8 °F - 46.4 °F 82% 29.58 in 7.0 mi SSW 15.0 mph 25.3 mph N/A   Mostly Cloudy
5:35 PM 50.0 °F - 46.4 °F 87% 29.59 in 5.0 mi SSW 12.7 mph 24.2 mph 0.02 in Rain Light Rain
5:55 PM 50.0 °F - 44.6 °F 82% 29.60 in 10.0 mi SSW 16.1 mph 21.9 mph 0.02 in   Mostly Cloudy
6:15 PM 50.0 °F - 44.6 °F 82% 29.61 in 3.0 mi SW 8.1 mph 20.7 mph N/A Rain Light Rain
6:35 PM 50.0 °F - 44.6 °F 82% 29.62 in 10.0 mi SW 11.5 mph 18.4 mph 0.01 in   Mostly Cloudy
6:55 PM 50.0 °F - 42.8 °F 76% 29.63 in 8.0 mi SW 11.5 mph 24.2 mph 0.01 in   Overcast
7:15 PM 48.2 °F - 44.6 °F 87% 29.64 in 5.0 mi SSW 8.1 mph 19.6 mph N/A Rain Light Rain
7:35 PM 48.2 °F - 42.8 °F 82% 29.65 in 10.0 mi SSW 9.2 mph - 0.01 in Rain Light Rain
7:55 PM 46.4 °F 44.3 °F 44.6 °F 93% 29.66 in 9.0 mi SSW 4.6 mph - 0.01 in Rain Light Rain
8:15 PM 46.4 °F - 44.6 °F 93% 29.66 in 10.0 mi Calm Calm - N/A   Overcast
8:35 PM 46.4 °F - 44.6 °F 93% 29.67 in 10.0 mi Calm Calm - N/A   Overcast
8:55 PM 46.4 °F - 44.6 °F 93% 29.67 in 9.0 mi Calm Calm - N/A   Overcast
9:15 PM 46.4 °F 42.4 °F 44.6 °F 93% 29.67 in 9.0 mi SSE 8.1 mph - N/A   Overcast
9:35 PM 48.2 °F - 42.8 °F 82% 29.67 in 7.0 mi South 9.2 mph - N/A   Overcast
9:55 PM 48.2 °F - 42.8 °F 82% 29.67 in 9.0 mi South 6.9 mph - N/A   Overcast
10:15 PM 46.4 °F 42.4 °F 42.8 °F 87% 29.67 in 8.0 mi South 8.1 mph - N/A   Overcast
10:35 PM 46.4 °F 42.4 °F 41.0 °F 81% 29.67 in 10.0 mi SSE 8.1 mph - N/A   Overcast
10:55 PM 46.4 °F 41.5 °F 42.8 °F 87% 29.67 in 10.0 mi South 10.4 mph - N/A   Mostly Cloudy
11:15 PM 46.4 °F 41.5 °F 42.8 °F 87% 29.67 in 8.0 mi South 10.4 mph - N/A   Overcast
11:35 PM 46.4 °F 41.9 °F 42.8 °F 87% 29.67 in 9.0 mi South 9.2 mph - N/A   Mostly Cloudy
11:55 PM 46.4 °F 42.4 °F 41.0 °F 81% 29.66 in 8.0 mi South 8.1 mph - N/A   Overcast